Location: Borgo
(42.3939°N, 9.2791°E)
Time: 19:56:21
(UTC+00:00)

Meteor 2-11 Rocket - Pass Details

Date: 27 February 2020
Orbit: 939 x 957 km, 82.5° (Epoch: 05 April)

Event Time Altitude Azimuth Distance (km) Brightness Sun altitude
Rises 18:08:28 0° 177° (S) 3,604 7.5 -11.7°
Reaches altitude 10° 18:10:58 10° 175° (S) 2,660 6.7 -12.1°
Maximum altitude 18:16:59 67° 94° (E) 1,023 4.4 -13.2°
Drops below altitude 10° 18:23:01 10° 14° (NNE) 2,667 6.7 -14.3°
Sets 18:25:31 0° 11° (NNE) 3,614 7.4 -14.8°
